Location: Courcelles
(49.2596°N, 1.7419°E)
Time: 01:58:29
(UTC+00:00)

SL-16 R/B - Pass Details

Date: 17 November 2025
Orbit: 985 x 1006 km, 99.8° (Epoch: 04 December)

Event Time Altitude Azimuth Distance (km) Brightness Sun altitude
Rises 17:57:23 0° 11° (N) 3,748 5.4 -17.5°
Reaches altitude 10° 18:00:06 10° 2° (N) 2,793 4.8 -17.9°
Maximum altitude 18:05:33 32° 302° (WNW) 1,642 4.2 -18.8°
Drops below altitude 10° 18:10:58 10° 241° (WSW) 2,773 5.9 -19.7°
Sets 18:13:40 0° 232° (SW) 3,716 6.5 -20.1°
